Ashland, WI

8:21 PM CDT on June 24, 2017 (GMT -0500)
Kennedy Memorial

Weather History for KASX - November, 2012

Change the Weather History Date:

Tuesday, November 6, 2012

  Actual Average Record
Temperature  
Mean Temperature 37 °F -  
Max Temperature 39 °F 44 °F 72 °F (2016)
Min Temperature 35 °F 27 °F -9 °F (1951)
Degree Days  
Heating Degree Days 28    
Moisture  
Dew Point 33 °F    
Average Humidity 84    
Maximum Humidity 93    
Minimum Humidity 60    
Precipitation  
Precipitation 0.00 in - - ()
Sea Level Pressure  
Sea Level Pressure 29.83 in    
Wind  
Wind Speed 7 mph (South)    
Max Wind Speed 12 mph    
Max Gust Speed 17 mph    
Visibility 8 miles    
Events      
Averages and records for this station are not official NWS values.
T = Trace of Precipitation, MM = Missing Value Source: NWS Daily Summary

Daily Weather History Graph

Daily Weather History Graph

Search for Another Location

Airport or City:

Trip Planner

Search our weather history database for the weather conditions in past years. The results will help you decide how hot, cold, wet, or windy it might be!

Date:

Astronomy

Nov. 06, 2012 Rise Set
Actual Time 6:53 AM CST 4:40 PM CST
Civil Twilight 6:21 AM CST 5:12 PM CST
Nautical Twilight 5:45 AM CST 5:48 PM CST
Astronomical Twilight 5:10 AM CST 6:23 PM CST
Moon 11:24 PM CST (11/6) 12:42 PM CST (11/6)
Length of Visible Light 10h 51m
Length of Day
9h 47m
Waning Gibbous, 53% of the Moon is Illuminated
Nov 6
Waning Gibbous
Nov 6
Last Quarter
Nov 13
New
Nov 20
First Quarter
Nov 28
Full

Hourly Weather History & Observations

Time (CST) Temp. Windchill Dew Point Humidity Pressure Visibility Wind Dir Wind Speed Gust Speed Precip Events Conditions
12:53 AM 39.9 °F 35.1 °F 27.0 °F 60% 29.95 in 10.0 mi South 6.9 mph - N/A   Overcast
1:53 AM 39.0 °F 32.8 °F 27.0 °F 62% 29.92 in 10.0 mi South 9.2 mph - N/A   Overcast
2:25 AM 39.2 °F 32.0 °F 26.6 °F 61% 29.88 in 10.0 mi South 11.5 mph - N/A   Overcast
2:53 AM 39.0 °F 32.3 °F 27.0 °F 62% 29.90 in 10.0 mi South 10.4 mph - N/A   Overcast
3:01 AM 39.2 °F 32.5 °F 26.6 °F 61% 29.86 in 10.0 mi South 10.4 mph - N/A   Overcast
3:53 AM 39.0 °F 32.3 °F 28.0 °F 65% 29.86 in 10.0 mi South 10.4 mph - N/A   Overcast
4:28 AM 35.6 °F 29.9 °F 30.2 °F 81% 29.83 in 7.0 mi South 6.9 mph - N/A   Overcast
4:53 AM 36.0 °F 31.1 °F 32.0 °F 86% 29.84 in 7.0 mi Variable 5.8 mph - 0.00 in   Overcast
5:42 AM 35.6 °F 30.7 °F 32.0 °F 87% 29.79 in 6.0 mi SSE 5.8 mph - N/A   Overcast
6:15 AM 35.6 °F 31.7 °F 33.8 °F 93% 29.78 in 6.0 mi South 4.6 mph - N/A   Overcast
6:48 AM 35.6 °F 29.2 °F 33.8 °F 93% 29.78 in 5.0 mi South 8.1 mph - N/A   Overcast
6:53 AM 36.0 °F 29.6 °F 33.1 °F 89% 29.81 in 5.0 mi South 8.1 mph - N/A   Overcast
7:46 AM 35.6 °F 29.2 °F 33.8 °F 93% 29.77 in 3.0 mi South 8.1 mph - 0.00 in   Overcast
7:53 AM 36.0 °F 29.6 °F 33.1 °F 89% 29.80 in 4.0 mi South 8.1 mph - 0.00 in   Overcast
8:14 AM 37.4 °F 30.8 °F 33.8 °F 87% 29.77 in 4.0 mi South 9.2 mph 16.1 mph 0.00 in   Overcast
8:34 AM 37.4 °F 30.3 °F 33.8 °F 87% 29.77 in 6.0 mi South 10.4 mph - 0.00 in   Overcast
8:53 AM 37.0 °F 29.8 °F 33.1 °F 86% 29.80 in 8.0 mi South 10.4 mph - 0.00 in   Overcast
9:44 AM 37.4 °F 32.1 °F 33.8 °F 87% 29.76 in 5.0 mi South 6.9 mph - 0.00 in   Overcast
9:53 AM 37.0 °F 31.0 °F 34.0 °F 89% 29.79 in 5.0 mi South 8.1 mph - 0.00 in   Overcast
10:34 AM 37.4 °F 30.8 °F 33.8 °F 87% 29.76 in 10.0 mi South 9.2 mph 17.3 mph N/A   Overcast
10:53 AM 37.9 °F 32.1 °F 34.0 °F 86% 29.79 in 10.0 mi South 8.1 mph - N/A   Overcast
11:53 AM 37.9 °F 30.9 °F 34.0 °F 86% 29.77 in 10.0 mi SSW 10.4 mph 16.1 mph N/A   Overcast
12:53 PM 37.9 °F 31.5 °F 34.0 °F 86% 29.77 in 10.0 mi South 9.2 mph - N/A   Overcast
1:53 PM 37.9 °F 32.7 °F 34.0 °F 86% 29.78 in 10.0 mi SSW 6.9 mph - N/A   Overcast
2:53 PM 37.9 °F 32.1 °F 34.0 °F 86% 29.79 in 10.0 mi SSW 8.1 mph - N/A   Overcast
3:49 PM 37.4 °F 34.9 °F 35.6 °F 93% 29.79 in 10.0 mi South 3.5 mph - N/A   Overcast
3:53 PM 37.9 °F 34.4 °F 35.1 °F 89% 29.81 in 10.0 mi SSW 4.6 mph - N/A   Overcast
4:51 PM 37.4 °F - 33.8 °F 87% 29.81 in 10.0 mi Calm Calm - N/A   Overcast
4:53 PM 37.9 °F 35.5 °F 34.0 °F 86% 29.84 in 10.0 mi South 3.5 mph - N/A   Overcast
5:53 PM 37.0 °F - 34.0 °F 89% 29.86 in 10.0 mi Calm Calm - N/A   Overcast
6:53 PM 37.0 °F - 34.0 °F 89% 29.88 in 10.0 mi Calm Calm - N/A   Overcast
7:20 PM 37.4 °F - 35.6 °F 93% 29.86 in 10.0 mi Calm Calm - N/A   Overcast
7:53 PM 37.0 °F - 35.1 °F 93% 29.89 in 10.0 mi Calm Calm - N/A   Overcast
8:53 PM 37.0 °F - 35.1 °F 93% 29.91 in 10.0 mi Calm Calm - N/A   Overcast
9:53 PM 37.0 °F 34.5 °F 35.1 °F 93% 29.92 in 10.0 mi WSW 3.5 mph - N/A   Overcast
10:53 PM 37.0 °F 34.5 °F 35.1 °F 93% 29.94 in 10.0 mi SW 3.5 mph - N/A   Overcast
11:53 PM 37.0 °F 34.5 °F 35.1 °F 93% 29.95 in 10.0 mi West 3.5 mph - N/A   Overcast